GFSMA_850_spd_270.txt.gz
Wind_Speed
3 3 4 6 8 10 12 13 14 14 15 16 17 18 19 21 23 24 25 25 29 31 31 31 30 28 27 26 27 27 26 26 27 27 27 28 27 27 27 26 26 25 25
6 6 7 8 9 11 12 14 15 16 18 20 21 21 22 22 22 22 23 26 28 31 32 33 33 34 34 33 33 33 33 33 32 31 31 30 30 30 30 30 30 29 29
12 11 11 14 15 16 17 20 20 21 23 23 23 22 23 25 27 27 27 28 28 28 29 31 34 37 38 38 39 40 40 40 39 38 37 35 34 33 33 32 32 32 31
14 15 15 19 19 21 22 22 24 26 25 27 28 29 29 29 28 29 31 33 34 33 33 33 33 34 37 39 41 42 43 44 44 44 44 42 41 40 38 37 36 34 33
10 12 14 18 19 19 23 23 25 27 30 30 32 33 34 34 33 32 33 34 34 35 37 39 39 38 38 39 40 42 44 45 45 45 43 44 44 44 43 42 40 38 36
7 8 13 17 19 20 21 20 22 24 26 28 33 36 37 37 35 36 39 39 37 35 33 34 37 40 41 42 42 42 43 44 45 45 45 44 42 41 40 40 40 40 38
7 8 9 11 11 15 15 18 19 21 21 26 30 37 38 38 38 33 33 30 29 30 31 35 38 37 37 38 39 39 39 41 43 44 45 45 45 44 42 42 41 41 40
8 9 10 11 11 12 13 15 17 18 18 19 21 23 18 27 17 20 26 30 35 35 36 37 35 37 38 41 43 43 41 40 38 39 44 45 44 44 45 44 44 44 42
12 12 13 13 13 13 15 17 18 19 19 18 16 9 11 10 35 21 29 18 19 26 31 36 35 38 41 40 40 41 41 42 42 43 41 39 42 45 46 47 46 44 42
15 16 16 16 16 16 16 16 17 18 19 20 18 18 14 14 12 18 34 37 34 34 37 38 40 40 39 39 44 45 43 42 42 42 43 43 42 40 38 39 42 42 39
14 15 17 18 19 20 19 19 18 18 19 19 19 21 23 23 9 22 28 40 43 43 43 42 41 41 40 39 39 40 41 41 43 44 41 39 40 41 41 40 38 39 38
17 18 19 19 19 20 21 22 22 21 21 19 16 19 18 21 28 22 30 32 40 48 44 45 45 41 39 37 33 31 34 36 40 37 37 36 36 35 36 38 40 40 40
19 20 21 21 22 22 21 20 20 19 19 19 19 22 23 28 21 24 33 41 41 48 47 45 41 44 42 35 32 32 35 36 36 39 41 39 39 38 37 36 37 38 41
19 20 21 22 22 23 23 23 22 23 23 22 23 25 26 23 22 26 29 33 43 33 44 41 42 40 31 33 37 42 42 39 34 34 37 44 38 39 39 38 36 35 36
19 20 21 22 22 23 23 23 22 23 22 23 23 24 25 27 25 27 26 24 28 37 46 40 40 35 45 47 43 41 44 43 44 49 45 36 37 41 38 40 44 42 39
20 21 22 24 24 25 26 26 29 29 29 28 28 28 27 27 28 27 28 28 28 31 43 42 39 45 47 45 38 40 41 40 44 44 43 53 58 59 57 54 46 42 44
20 22 23 24 25 26 27 30 31 30 30 29 29 29 29 28 27 27 28 29 30 33 40 54 42 35 38 44 43 46 49 47 45 45 41 39 41 48 52 59 57 52 44
21 22 24 25 26 26 27 31 32 32 33 33 32 31 31 30 28 27 29 32 33 35 37 49 47 47 47 44 42 42 43 48 46 47 46 45 43 49 48 46 50 51 49
21 22 23 24 26 27 30 32 33 34 33 32 32 32 33 33 31 30 30 32 35 37 40 44 48 47 44 41 40 42 41 36 34 38 48 41 40 45 42 50 48 50 50
21 22 23 25 26 27 29 32 34 35 34 34 33 32 32 31 30 30 31 33 33 36 40 41 48 45 44 41 36 42 51 50 53 50 46 47 38 34 34 36 43 53 53
21 22 24 25 26 28 31 33 35 36 37 37 36 36 34 32 28 29 29 32 34 37 39 42 46 44 44 45 43 43 43 48 55 51 49 39 39 42 34 32 33 34 48
20 22 23 25 26 28 29 31 33 35 36 39 40 39 37 36 35 33 33 34 32 35 39 40 44 44 50 46 47 43 44 45 54 40 36 52 45 43 38 34 37 35 41
19 21 22 24 25 27 29 32 32 34 35 37 39 40 40 38 38 39 39 38 36 34 32 35 41 42 47 46 47 48 46 46 48 51 48 56 45 41 37 37 40 38 36
19 20 21 23 24 27 29 32 33 34 34 35 37 39 40 40 39 41 42 40 39 39 37 35 36 41 41 42 40 42 44 47 48 48 42 38 37 38 31 29 29 31 37
17 19 20 22 24 26 28 31 33 34 35 35 36 36 38 39 39 38 39 40 40 39 37 34 32 33 32 35 32 34 35 37 42 41 37 32 30 19 28 29 21 26 28
16 18 20 21 23 25 27 29 32 34 35 38 37 36 35 36 37 37 38 39 41 41 41 40 36 34 34 33 35 30 31 31 32 32 21 14 27 31 26 17 24 26 18

GFSMA_850_spd_276.txt.gz
Wind_Speed
1 1 2 2 3 5 6 8 9 10 11 12 13 15 16 16 17 17 18 22 23 22 23 24 25 26 28 30 32 32 32 32 31 31 30 30 29 29 29 29 30 30 30
4 5 5 6 7 8 8 8 10 12 13 14 15 15 17 17 17 19 19 21 26 25 25 26 27 28 29 30 31 31 32 32 33 34 35 36 36 36 36 35 35 34 33
11 11 12 13 14 14 14 16 14 13 15 16 18 19 19 20 21 21 21 22 22 25 27 27 25 26 27 30 31 33 34 34 35 35 36 37 38 39 40 41 40 40 39
11 12 14 15 15 15 16 16 16 14 13 15 17 18 20 21 22 23 24 23 23 24 25 27 30 32 30 30 31 32 33 35 37 39 39 40 40 40 41 41 42 42 42
9 9 10 12 13 15 14 16 15 18 18 22 22 20 20 20 21 21 22 22 21 21 21 23 26 28 26 27 28 28 29 31 32 32 33 35 37 39 40 42 44 43 42
6 6 8 8 9 9 11 11 11 12 12 17 19 17 16 18 18 16 16 15 14 15 15 18 20 18 22 25 27 30 31 32 31 31 32 33 34 35 35 37 39 42 43
3 3 4 6 7 8 10 11 12 12 10 17 13 16 14 9 9 9 11 12 15 14 19 20 21 24 23 29 27 26 29 32 31 33 33 33 33 33 34 33 35 36 37
1 2 3 5 6 7 9 10 10 10 10 15 14 11 10 14 4 17 8 9 17 17 20 23 24 25 26 23 29 28 23 29 36 38 36 36 38 37 37 36 36 36 37
2 3 4 5 6 7 8 9 10 11 10 11 13 11 7 6 23 1 14 9 22 19 25 24 23 25 28 26 23 22 28 32 33 36 37 39 39 40 41 40 40 38 37
6 6 7 7 7 8 9 11 12 12 11 10 8 11 7 10 9 16 12 24 18 25 26 20 31 23 23 22 23 25 31 36 36 37 38 40 41 41 39 39 41 41 41
8 8 9 10 11 12 12 12 13 14 13 11 10 11 10 11 7 17 25 25 27 24 20 31 21 26 23 26 24 26 33 37 37 39 40 41 42 42 41 41 40 42 42
8 9 9 9 9 9 10 11 12 12 12 12 11 11 11 12 15 15 24 29 31 26 32 17 26 25 25 23 33 31 38 42 40 40 38 41 46 47 47 45 46 43 43
8 8 9 10 11 12 12 13 13 13 13 12 13 11 11 11 13 16 22 28 33 34 15 28 27 25 24 32 32 37 40 41 42 42 44 41 41 44 46 49 45 47 45
9 10 11 12 12 12 12 12 12 13 13 13 13 13 12 12 13 16 19 26 39 28 27 32 26 21 33 33 40 42 38 43 45 46 43 42 40 40 41 45 47 48 48
10 11 11 11 11 12 12 12 12 13 14 14 13 15 15 14 16 17 18 19 25 39 42 34 36 31 34 36 38 40 41 42 49 44 43 39 38 43 44 45 45 49 49
10 10 10 10 11 13 14 15 14 15 15 15 15 17 16 17 18 18 18 19 21 28 36 40 39 40 39 38 36 38 39 45 44 44 45 41 43 46 49 50 49 45 46
9 10 10 11 13 14 15 15 15 16 16 17 18 17 17 18 18 17 18 20 22 25 38 47 39 39 41 40 38 37 37 38 39 41 45 45 49 46 44 42 47 49 47
10 10 11 12 13 14 15 15 16 17 16 16 17 18 17 19 19 19 21 21 24 27 32 45 43 43 40 40 41 41 40 36 37 41 45 47 46 47 46 40 39 43 46
10 11 11 11 12 14 15 16 16 17 15 15 15 16 17 20 20 23 25 25 27 29 30 35 46 43 44 42 44 44 42 43 39 41 44 49 42 39 40 42 46 42 37
10 10 11 11 12 14 15 16 16 17 16 16 17 16 16 20 24 28 27 28 29 32 32 35 40 44 42 46 44 43 55 48 51 50 49 42 41 40 41 48 44 37 29
9 10 10 10 11 13 15 16 17 16 16 16 15 16 18 25 29 31 33 34 33 34 34 35 41 45 43 48 45 46 47 54 49 47 46 39 49 44 38 37 35 28 17
9 9 8 8 10 12 13 15 16 14 14 14 16 18 19 19 29 33 34 32 30 31 32 33 39 40 43 43 44 45 48 48 56 46 49 51 48 44 36 37 34 23 15
8 7 7 7 8 11 12 14 15 14 13 15 16 18 21 22 27 35 36 32 26 27 25 32 32 35 40 42 43 46 47 45 48 51 47 48 43 42 40 37 27 21 21
7 6 6 6 7 10 11 13 13 13 13 14 17 19 24 26 29 34 35 31 27 27 27 32 30 32 34 38 38 40 43 45 44 44 41 40 43 47 44 37 18 24 20
7 5 5 6 7 8 11 12 13 13 14 15 17 20 24 26 28 31 33 32 32 33 33 31 30 30 32 34 36 39 42 47 45 47 38 40 43 45 44 32 26 30 20
7 5 5 6 6 8 11 13 14 14 15 16 18 19 21 24 26 29 31 29 34 39 41 40 36 33 31 34 35 36 41 44 46 44 38 44 41 35 32 31 33 24 21

GFSMA_850_spd_279.txt.gz
Wind_Speed
4 2 3 3 6 6 7 9 9 11 12 13 13 13 15 16 17 17 17 20 25 25 25 23 24 25 25 26 27 27 28 29 30 30 31 32 33 33 33 33 33 33 32
4 1 4 5 6 6 9 8 11 12 13 14 16 16 17 18 18 19 19 20 23 26 26 26 24 24 25 26 27 29 30 31 31 32 32 33 34 35 36 36 37 38 38
8 4 3 3 6 6 9 9 10 12 15 15 17 18 19 20 20 20 21 20 21 24 25 24 24 26 25 28 29 29 30 31 32 33 35 36 37 38 38 39 39 40 40
10 8 7 10 11 9 11 11 11 11 11 15 17 17 17 18 19 21 22 24 26 26 24 19 16 16 17 23 20 20 23 25 27 29 31 32 33 34 36 39 40 41 42
7 7 8 9 8 7 11 10 11 10 11 12 14 16 16 16 16 16 15 16 21 24 20 23 22 18 17 18 18 21 26 28 29 30 29 30 31 32 34 35 36 36 37
5 4 6 6 6 7 9 9 9 10 10 14 17 15 14 14 11 8 5 10 12 16 15 20 24 19 24 27 24 27 27 31 31 32 34 35 35 35 36 37 37 38 38
3 3 4 5 5 8 9 10 9 9 10 15 11 14 10 6 5 11 15 9 16 17 17 22 20 23 22 23 21 25 26 25 29 32 35 39 39 38 38 38 42 41 41
2 3 3 4 3 6 6 8 9 9 8 14 16 10 8 5 4 9 3 8 17 15 20 20 21 21 25 21 19 20 24 29 33 36 39 41 41 42 42 41 42 43 45
2 1 1 3 4 5 7 8 8 9 9 11 14 11 7 6 19 4 8 14 14 22 22 21 21 26 20 23 20 22 27 31 34 38 39 40 42 44 46 44 48 45 43
3 3 3 3 4 6 7 9 11 11 11 11 9 11 8 10 8 14 10 16 22 23 26 25 26 19 23 24 24 22 29 37 37 39 43 44 43 43 43 48 49 46 47
5 5 6 8 9 10 10 11 11 12 11 10 10 11 10 9 8 15 21 26 23 23 25 26 19 27 27 26 24 30 39 41 42 42 42 42 42 43 43 44 45 47 50
6 7 8 9 9 8 8 9 10 11 11 11 11 11 11 13 14 16 20 23 26 24 25 17 26 29 26 26 33 36 42 45 43 43 46 44 46 45 43 42 44 44 43
5 7 7 7 7 7 8 9 10 11 12 12 13 11 11 11 13 15 17 22 27 28 23 21 24 24 27 36 37 42 44 44 42 44 47 49 44 43 42 42 41 44 43
6 7 7 7 8 8 9 10 10 11 11 11 12 13 11 12 14 15 17 23 33 30 25 29 16 32 33 37 40 42 44 44 44 46 46 45 44 46 47 46 45 47 48
7 7 7 7 8 9 10 10 10 11 11 12 13 15 13 14 16 17 19 19 23 30 34 21 37 36 39 40 41 40 46 47 48 43 44 43 44 46 48 49 49 46 47
9 8 8 8 8 9 10 10 10 12 12 13 13 14 16 17 17 17 17 18 19 25 33 37 40 40 43 43 39 45 44 48 44 42 43 45 46 45 47 46 45 44 43
9 9 8 8 8 9 10 11 11 11 12 12 14 14 15 17 18 18 19 19 22 25 34 39 39 43 45 44 48 47 49 43 43 43 43 44 47 47 44 43 43 42 40
10 9 8 8 8 9 9 10 10 10 10 11 12 12 13 16 17 17 19 21 22 25 31 41 42 45 43 47 45 49 51 43 46 44 50 48 47 40 42 47 50 46 45
10 9 8 8 8 8 9 10 9 9 9 10 11 12 13 15 16 23 24 26 25 27 28 34 43 43 45 43 48 51 49 48 47 49 54 49 44 47 47 45 41 35 39
10 9 8 7 7 8 8 8 7 7 7 8 10 11 12 17 24 28 31 31 30 29 30 31 38 42 45 48 43 47 60 49 55 56 44 43 49 47 43 44 37 37 36
10 9 8 7 6 6 7 7 7 5 7 8 9 10 13 22 26 30 31 32 32 32 31 34 40 44 46 48 49 53 53 58 54 46 48 54 53 50 47 44 44 43 38
11 10 8 7 4 4 6 7 7 6 6 7 9 10 12 14 23 27 29 29 30 31 31 33 40 42 45 45 48 50 53 54 58 52 53 56 50 50 48 43 46 34 29
11 10 8 6 3 3 5 6 7 6 5 8 9 11 14 16 24 27 29 28 25 27 26 33 36 37 41 40 44 51 50 47 49 54 48 54 47 54 46 50 30 31 37
11 9 8 7 3 3 4 6 6 6 5 6 8 10 16 18 23 26 29 28 29 28 31 35 34 36 37 38 38 42 45 47 46 47 47 48 49 52 55 46 34 42 34
12 10 8 7 4 1 3 4 4 4 5 6 7 11 16 19 22 24 28 29 32 31 32 36 35 33 33 34 35 39 43 47 47 49 47 47 49 50 51 41 39 34 34
12 11 8 7 4 1 2 4 5 4 5 6 8 10 17 18 20 23 27 28 32 34 38 40 41 40 36 34 33 35 40 45 48 49 45 50 45 49 48 31 45 40 42

GFSMA_850_spd_282.txt.gz
Wind_Speed
6 6 4 2 0 5 3 3 6 7 7 11 14 13 11 15 17 17 19 18 21 23 25 26 24 20 17 17 19 21 23 25 27 28 29 30 30 30 30 31 32 33 34
8 6 3 7 8 9 10 12 13 12 15 14 17 17 15 17 17 19 19 18 20 22 21 21 21 21 16 15 16 19 24 26 26 26 27 29 31 33 34 35 36 36 37
3 6 8 11 9 11 11 12 12 11 12 15 17 17 16 15 15 16 19 21 22 23 25 21 18 18 15 13 16 20 22 22 24 26 27 27 28 30 31 32 35 38 39
5 6 8 8 3 4 11 9 10 8 9 9 14 15 15 13 9 10 16 10 10 13 13 13 12 10 13 16 18 19 19 22 23 25 27 28 30 31 33 34 36 36 36
5 8 7 4 3 6 11 9 8 9 8 12 16 15 8 7 8 9 4 6 7 16 16 20 20 20 18 20 25 24 23 30 29 34 33 33 33 34 34 36 36 37 39
6 6 4 3 6 7 9 9 8 7 8 16 15 11 7 7 5 1 4 8 12 17 22 26 25 22 21 21 20 18 21 25 28 28 30 32 35 37 38 39 39 40 42
4 5 5 3 6 7 8 7 6 5 10 14 12 9 12 3 2 4 6 14 17 19 20 23 20 23 25 19 18 20 23 26 31 34 37 41 42 44 44 46 46 44 44
3 4 4 2 2 6 5 6 6 6 8 16 18 10 8 6 5 9 8 12 19 23 27 23 24 21 19 21 19 21 27 31 32 34 40 42 42 43 44 45 43 44 45
3 1 1 1 1 3 6 7 6 9 10 14 17 16 7 7 13 3 6 18 21 26 28 29 20 21 22 25 26 21 25 33 39 42 43 43 42 42 43 44 44 44 44
2 2 2 2 2 4 4 7 9 10 8 12 12 13 10 9 9 12 10 15 26 25 27 22 23 28 28 26 27 32 36 41 42 42 43 43 42 42 42 44 44 43 41
5 4 4 4 5 7 9 10 11 11 12 12 13 10 10 7 5 9 16 30 26 27 22 22 25 23 30 31 35 36 39 40 43 42 44 45 45 44 44 41 41 40 39
6 6 6 7 8 9 9 10 11 12 12 12 10 11 11 11 12 11 18 22 28 28 23 28 23 29 34 37 39 42 43 44 40 44 48 47 46 45 43 41 40 39 39
6 7 7 7 9 9 9 10 10 12 11 13 13 12 9 11 13 15 15 22 28 31 26 27 21 32 39 41 42 42 42 46 45 48 49 44 41 40 40 42 43 42 41
8 9 8 8 8 9 9 10 10 11 12 12 13 13 11 14 16 17 20 23 29 25 34 29 37 41 42 42 41 40 45 44 48 47 43 43 44 45 46 47 46 47 49
10 10 9 8 9 9 9 9 10 11 11 12 13 14 15 16 17 20 22 22 22 25 32 32 38 43 42 43 44 44 44 49 50 43 44 46 44 48 49 46 43 42 41
11 11 9 9 9 9 9 9 10 11 12 13 14 15 18 19 21 23 22 21 22 22 23 39 42 44 45 45 45 46 47 54 52 51 48 50 54 45 41 41 40 41 41
13 11 10 9 9 9 9 10 10 11 11 13 14 15 18 19 20 21 23 24 25 26 29 41 42 46 48 49 50 50 54 56 54 53 52 53 49 48 52 46 44 45 41
14 12 11 10 9 9 10 10 10 10 11 13 13 13 16 18 21 24 26 27 27 28 31 41 46 50 51 51 50 56 56 55 55 55 56 50 50 51 49 47 45 44 41
15 13 11 10 9 9 9 9 9 9 10 11 12 13 15 19 22 25 26 27 29 31 34 40 47 50 52 52 56 55 54 55 55 58 56 52 52 53 52 50 48 44 41
15 13 11 10 9 9 8 7 8 8 8 10 12 13 15 18 22 24 26 27 30 34 36 39 45 50 51 51 49 49 59 54 58 60 55 51 53 54 53 51 53 46 39
15 14 12 9 9 8 8 6 5 7 7 7 8 9 12 17 20 22 26 28 29 32 34 39 45 46 50 53 50 49 50 57 59 57 51 55 56 56 52 53 51 37 35
16 14 11 8 8 7 6 5 5 6 6 6 6 7 9 14 15 19 23 24 26 27 30 37 40 43 47 46 50 52 50 54 58 53 58 56 53 52 50 54 46 36 38
17 15 12 9 8 7 5 4 4 4 6 5 6 8 9 13 16 20 23 23 24 25 28 31 36 38 42 42 45 51 51 48 50 59 54 57 52 56 50 56 44 42 39
18 15 13 9 8 6 4 4 4 6 5 4 6 8 10 14 18 21 23 23 24 26 29 31 32 35 36 38 37 38 42 46 48 52 52 51 54 52 53 52 47 46 37
18 15 13 10 8 6 4 3 3 6 1 2 4 8 11 15 18 21 22 23 25 25 26 28 31 35 38 39 36 40 46 48 51 53 49 49 54 54 51 45 51 48 48
18 16 14 14 9 7 5 4 3 3 3 3 4 9 12 15 17 19 21 25 28 30 33 34 34 37 40 43 42 38 41 46 49 53 46 55 52 56 52 45 48 52 54

GFSMA_850_spd_285.txt.gz
Wind_Speed
9 7 9 6 8 4 8 3 5 4 5 3 6 6 4 6 8 13 11 15 18 16 15 15 17 18 17 17 17 18 18 19 21 23 24 25 26 26 28 29 30 31 32
12 13 10 7 8 11 13 14 14 14 14 15 15 14 15 13 15 13 11 13 11 12 14 15 16 16 15 17 16 17 20 19 21 22 23 23 25 26 27 28 30 33 35
10 14 11 11 14 15 16 14 15 16 16 17 17 18 15 14 10 9 7 2 6 6 11 13 15 15 16 15 18 20 23 23 23 24 23 26 25 27 26 28 30 31 33
10 11 11 12 14 13 11 10 11 11 12 13 12 9 6 2 8 3 1 3 5 10 13 14 15 16 17 16 18 21 22 24 30 27 32 34 36 36 38 39 38 38 37
9 9 9 9 9 9 9 8 6 8 10 9 10 7 3 5 3 3 3 3 8 12 15 19 19 16 14 13 14 15 18 22 24 27 31 34 36 38 38 40 41 42 43
10 7 8 8 7 6 6 6 3 8 9 8 6 11 13 9 5 2 1 6 10 14 18 18 15 14 13 11 14 18 21 24 27 30 32 34 36 39 38 38 39 39 39
9 6 6 7 6 5 5 2 3 5 4 7 18 18 17 9 5 1 4 9 13 15 18 17 15 14 17 17 17 17 20 24 28 33 36 36 37 38 38 38 37 37 40
8 7 5 6 6 3 0 2 2 1 6 11 15 16 10 7 4 4 7 10 16 18 19 18 17 20 21 21 20 21 26 30 31 33 34 35 35 34 35 34 35 37 37
7 6 5 4 2 0 2 4 4 4 6 10 12 7 5 1 3 3 8 13 18 21 19 19 21 20 23 25 26 27 29 30 31 34 36 38 40 39 39 37 38 37 37
7 6 5 4 2 3 5 6 6 5 6 10 11 11 8 5 5 3 7 17 21 21 21 21 21 23 26 29 29 29 33 35 38 40 41 42 42 41 38 37 37 37 37
7 6 5 5 5 6 7 7 9 9 10 10 11 10 7 7 9 8 10 25 20 22 22 24 26 30 31 32 34 35 35 35 36 37 40 40 39 37 37 37 37 38 39
9 8 7 7 8 8 9 10 10 12 12 11 10 11 13 14 16 16 19 22 24 23 25 29 31 33 34 35 35 35 36 39 42 44 42 41 38 37 38 38 38 40 41
11 10 9 10 9 10 10 10 11 12 13 11 12 14 13 15 15 17 18 22 26 26 30 32 32 34 35 37 38 39 40 43 45 44 42 42 40 40 41 40 41 40 39
12 12 11 11 11 11 11 10 11 13 13 13 14 15 15 16 17 19 21 23 24 21 28 33 34 37 39 40 43 42 44 45 45 45 45 44 43 40 40 39 40 40 40
14 13 13 13 12 12 11 11 11 13 12 14 15 15 16 17 18 19 19 20 19 18 24 34 38 39 42 44 45 45 47 45 45 45 46 45 43 39 38 40 41 41 40
15 14 14 14 13 11 12 10 11 13 12 13 14 14 16 18 18 18 19 21 21 21 22 33 37 41 44 45 46 46 46 47 47 46 47 45 42 42 43 43 42 41 42
17 15 15 15 14 12 12 11 11 12 12 12 13 14 16 16 17 18 19 22 23 24 28 34 37 42 44 46 47 47 48 51 52 47 46 46 45 45 44 43 44 46 45
18 17 15 15 14 13 11 10 11 12 11 11 12 13 15 15 17 19 21 22 23 25 30 36 40 43 44 46 48 50 53 54 55 52 46 48 47 46 46 45 48 47 47
20 18 16 14 14 13 13 12 11 11 10 11 10 12 14 14 16 19 21 22 24 27 29 35 40 41 43 46 50 52 54 56 57 53 49 49 48 48 47 43 51 45 40
22 19 17 14 13 12 10 12 12 10 9 9 9 11 12 14 16 19 21 22 25 27 31 34 38 41 44 46 48 55 61 58 61 51 50 51 50 49 47 48 50 48 43
22 20 18 17 15 13 12 11 10 10 8 7 8 9 11 14 16 19 21 22 25 27 30 34 37 40 44 48 50 52 51 57 63 56 50 53 54 51 48 51 49 47 44
23 21 19 17 16 14 13 11 9 8 8 7 8 7 10 10 12 15 18 20 23 26 30 34 35 38 41 42 47 49 51 51 52 55 60 56 51 50 52 51 48 43 46
24 22 20 18 16 15 13 11 9 7 7 6 7 6 8 10 12 14 16 17 19 22 26 30 33 35 39 39 43 48 51 47 47 52 53 55 49 51 52 53 46 45 45
26 22 20 18 16 15 13 11 10 8 7 5 5 6 8 10 12 15 17 17 19 23 26 27 28 32 33 35 36 39 42 47 48 44 45 45 52 52 52 50 44 48 46
27 23 20 19 16 14 13 12 9 8 6 5 4 6 7 9 13 14 15 18 20 21 23 25 27 30 32 34 37 40 43 44 52 52 44 50 53 53 47 44 50 43 49
28 24 21 19 17 14 13 11 9 8 8 5 4 5 7 10 12 12 16 20 23 26 28 30 30 32 35 37 37 36 37 42 42 49 49 51 50 52 50 41 51 54 47

GFSMA_850_spd_291.txt.gz
Wind_Speed
8 7 6 6 7 5 7 4 3 5 5 6 6 5 8 8 9 9 10 10 8 6 5 4 7 10 11 13 14 13 14 17 17 18 20 22 24 27 26 27 28 28 30
6 5 5 7 6 5 5 8 8 10 11 11 12 12 11 9 10 8 4 4 0 0 2 4 8 9 13 19 20 20 20 21 22 25 26 27 29 31 31 33 35 36 38
10 9 9 8 9 10 11 13 14 14 12 12 12 10 8 6 6 6 8 6 2 2 5 8 10 12 16 20 15 14 15 18 20 20 20 22 23 25 25 26 27 29 30
15 14 14 15 15 14 14 15 14 13 10 7 6 4 9 13 12 10 9 6 3 4 6 10 13 14 15 11 8 11 16 19 21 23 24 25 26 27 29 29 30 32 32
13 14 14 14 16 16 15 14 12 11 9 7 7 14 17 15 12 9 5 2 4 5 7 9 12 12 11 9 10 15 19 21 22 22 24 25 27 29 30 31 31 31 31
15 14 15 15 15 15 15 14 12 10 9 11 16 20 17 14 10 5 3 4 5 6 6 6 6 7 8 11 13 16 18 19 21 23 25 28 30 31 33 34 33 32 32
16 15 15 14 14 13 13 13 10 7 9 16 22 23 18 12 9 5 4 4 5 5 4 5 7 9 11 13 14 16 18 21 23 26 28 29 31 33 34 34 34 33 33
16 15 14 13 12 12 12 9 5 7 15 23 23 20 12 9 6 6 6 5 4 4 5 8 10 13 15 17 20 21 22 24 26 28 29 31 33 35 37 35 33 33 35
16 14 13 12 11 11 10 7 7 10 18 22 22 9 7 6 11 5 6 5 7 7 9 10 13 15 17 19 20 21 23 25 28 30 32 35 37 38 38 36 34 35 36
15 14 13 12 10 9 8 7 9 13 18 20 23 14 10 8 8 8 7 8 8 9 11 13 16 18 20 20 21 23 26 30 31 33 35 37 38 39 40 40 38 36 37
16 14 12 11 9 8 8 8 9 12 13 16 21 16 9 8 8 10 10 9 8 12 14 16 18 20 21 22 24 26 29 31 33 34 37 38 39 40 41 42 38 37 36
16 14 12 10 9 9 9 9 10 10 11 12 12 10 8 7 8 9 14 12 9 9 15 16 19 21 22 23 24 26 29 31 33 35 37 38 39 41 42 40 35 35 37
17 15 12 10 10 9 10 10 11 11 10 10 10 10 10 10 10 10 12 12 9 9 11 16 20 22 23 24 26 28 29 31 34 36 37 38 40 42 42 40 36 37 37
15 14 13 12 11 10 11 11 12 12 11 11 10 10 10 12 11 11 12 10 9 11 12 17 18 22 24 26 29 30 31 32 33 35 36 39 41 42 41 41 40 38 36
16 15 13 13 13 13 12 12 11 11 11 11 10 10 10 12 11 12 12 12 13 10 16 18 19 23 26 29 30 31 32 33 34 37 36 40 41 42 43 42 38 36 35
18 17 15 15 15 14 14 13 13 13 12 12 11 9 10 11 10 10 11 12 14 16 15 19 21 25 27 28 30 32 34 35 35 37 37 40 42 43 42 39 36 35 36
18 18 17 16 16 16 15 14 14 14 12 12 12 9 9 10 9 10 10 11 13 15 18 19 21 24 28 31 33 35 37 39 39 37 39 43 43 43 41 38 35 36 34
19 19 19 18 17 16 15 15 15 14 12 12 11 9 9 9 8 9 10 11 13 16 18 22 24 28 31 34 38 40 41 41 42 38 42 44 43 44 40 38 38 34 34
21 21 20 20 18 17 16 15 14 15 13 11 10 9 8 7 7 9 10 12 14 17 19 21 25 29 33 38 41 43 45 45 45 39 45 45 46 45 42 41 37 34 34
23 23 22 20 19 18 17 16 16 15 14 12 11 9 7 6 6 7 9 11 14 16 19 22 27 31 35 39 42 48 50 48 48 41 45 48 48 47 45 44 36 35 36
25 24 23 22 21 19 18 18 17 15 14 13 11 8 7 5 5 7 9 12 14 17 21 25 29 32 37 42 45 46 47 50 48 46 49 51 52 52 49 45 39 37 37
27 26 25 24 23 21 20 19 16 15 13 11 10 7 5 5 5 7 9 12 14 17 21 26 29 32 35 38 40 43 45 50 50 48 51 54 53 53 50 44 40 39 41
29 28 26 25 24 23 21 20 17 15 13 12 10 7 4 3 4 6 9 11 13 17 20 24 27 30 33 36 38 40 41 42 44 45 45 52 53 54 52 46 44 44 45
31 29 28 27 26 24 22 20 19 16 15 14 11 8 5 3 3 5 7 8 11 15 18 21 23 26 29 31 34 37 40 42 41 41 42 44 52 58 55 49 48 46 47
32 30 28 28 28 27 25 23 22 19 16 15 12 9 6 4 3 3 3 5 9 12 16 18 20 22 25 28 33 36 40 45 48 47 41 46 52 58 58 51 50 47 48
33 31 30 28 27 26 27 26 24 20 19 17 14 11 8 5 3 2 1 5 8 12 15 15 16 19 22 26 30 33 37 39 41 46 44 49 52 45 42 53 52 51 51

GFSMA_850_spd_294.txt.gz
Wind_Speed
8 8 7 7 6 3 4 4 2 3 4 4 5 6 6 8 7 7 6 6 6 4 3 9 4 9 12 15 17 19 20 21 21 22 23 25 26 27 28 28 29 30 31
7 7 6 7 6 3 4 4 7 7 8 9 10 11 11 8 8 6 3 3 4 0 2 1 7 10 15 17 19 22 21 18 16 16 18 19 21 22 23 24 25 26 28
6 6 5 5 6 5 7 8 10 11 11 11 10 8 6 5 5 6 4 5 4 4 3 6 9 12 13 14 20 20 18 18 19 20 22 23 24 25 26 28 28 29 29
9 9 9 9 10 11 11 10 10 9 9 8 6 6 9 11 10 8 6 3 3 2 5 9 12 14 14 12 14 16 18 19 20 22 23 23 24 26 27 27 28 28 28
10 10 11 12 11 12 13 12 10 9 9 8 9 13 14 12 9 8 5 3 2 3 5 8 10 10 10 11 13 14 16 17 19 19 20 22 25 27 29 30 30 30 29
12 12 12 13 14 14 14 13 11 10 10 12 15 18 15 11 9 6 3 2 2 4 5 6 7 9 10 10 12 13 14 15 18 20 23 25 27 28 29 30 31 30 30
15 15 15 15 15 14 14 12 11 11 13 17 20 20 16 11 7 4 2 2 3 5 6 6 7 7 8 10 11 13 16 18 20 23 25 27 29 31 33 34 32 30 31
16 17 17 16 14 13 12 11 11 12 16 22 21 18 12 9 7 5 3 3 4 5 5 7 9 9 10 11 14 16 18 20 23 25 27 29 31 33 35 35 32 32 31
18 17 16 14 13 12 11 10 10 10 16 22 20 10 8 6 10 5 4 4 5 4 7 8 10 12 13 14 15 17 20 24 26 28 29 30 32 34 35 35 35 34 32
17 16 15 13 12 12 11 10 10 11 14 18 23 15 7 6 9 8 7 5 5 5 7 9 11 12 13 15 18 19 22 25 27 28 29 30 32 34 36 37 38 35 35
16 15 14 13 12 11 10 9 12 16 20 17 21 18 11 10 12 8 12 11 7 6 7 9 11 12 14 16 19 21 23 25 27 28 29 31 33 35 37 39 41 40 36
17 16 15 13 12 11 9 9 12 15 17 19 19 19 14 9 11 11 12 15 7 4 6 9 12 14 16 18 20 21 23 24 26 28 29 31 33 35 37 40 42 39 37
17 16 14 12 11 10 9 10 11 13 13 13 13 13 10 7 7 9 12 14 10 6 5 8 14 16 18 19 21 22 24 25 26 29 29 31 33 36 38 41 43 40 36
15 15 15 13 11 11 10 11 11 12 12 12 11 10 9 8 9 9 11 10 11 6 5 9 12 17 19 22 23 24 25 26 28 28 29 31 33 36 39 41 41 39 36
17 16 15 13 12 12 11 11 11 12 12 11 11 10 9 10 10 11 11 8 5 4 10 12 12 17 20 22 25 26 26 27 28 28 29 31 34 37 40 39 37 37 38
18 17 16 14 13 13 13 13 13 13 13 12 11 10 9 10 9 10 10 10 10 11 9 13 16 19 21 23 25 27 28 28 29 29 31 33 35 38 38 36 35 36 37
18 18 17 16 16 15 15 14 14 14 12 11 11 9 9 10 8 9 10 10 11 12 13 13 16 18 21 25 27 29 31 32 31 31 32 35 36 38 37 35 34 34 35
20 19 18 18 17 17 17 16 15 14 11 11 10 9 8 9 7 8 8 9 11 12 14 16 18 21 24 28 30 32 33 34 32 34 34 36 38 39 36 35 34 34 34
21 21 20 19 18 19 18 17 15 14 13 11 10 9 8 8 6 7 8 9 10 12 14 17 19 23 27 31 33 34 37 37 34 36 37 37 39 41 38 33 32 32 31
23 23 21 20 20 20 19 19 18 16 14 12 10 9 7 7 6 7 7 8 10 11 13 16 20 24 28 31 35 40 41 39 38 39 39 38 41 43 40 36 34 34 34
25 23 24 23 22 21 21 21 19 17 15 13 12 10 8 7 6 6 6 7 10 11 14 17 21 25 29 34 37 39 41 44 42 44 45 43 44 49 45 39 38 37 36
26 25 25 25 26 23 21 21 18 17 15 13 12 11 9 7 6 5 5 6 9 11 15 18 22 25 28 30 33 37 41 48 49 43 48 47 49 52 47 40 38 37 38
28 28 27 27 26 25 25 23 20 17 16 15 13 11 9 8 6 4 4 6 8 11 14 17 21 23 26 30 33 35 36 39 41 40 47 52 49 51 50 43 43 41 41
30 30 29 28 27 26 26 24 22 19 18 16 14 12 10 8 6 4 4 4 7 10 13 16 19 21 23 26 29 33 36 36 38 33 44 49 52 50 53 47 47 43 43
33 31 30 30 30 28 27 25 24 22 19 17 16 13 11 9 6 5 3 2 5 8 11 13 15 18 21 24 27 29 33 40 43 32 37 44 50 54 53 51 48 47 45
34 32 32 31 30 29 29 28 26 24 21 20 18 16 13 11 8 6 3 0 2 4 7 10 12 15 18 20 25 30 33 36 40 35 40 46 48 48 40 54 51 51 50

GFSMA_850_spd_297.txt.gz
Wind_Speed
9 8 9 9 7 6 5 4 3 3 3 4 4 6 6 5 3 3 4 4 1 12 8 3 5 8 12 17 19 20 18 17 16 16 16 16 17 17 18 19 20 21 23
8 8 7 8 6 4 5 5 5 5 6 7 9 9 8 7 5 5 5 6 6 7 5 4 4 7 14 20 21 19 17 16 14 14 15 16 17 18 20 21 22 23 24
6 6 6 6 7 5 4 5 7 9 10 10 9 8 6 6 6 7 7 7 7 3 4 6 9 12 16 18 16 15 14 15 16 17 19 20 20 21 21 22 23 24 25
6 8 7 7 8 8 8 8 9 10 9 8 7 8 9 9 8 7 5 3 2 1 5 9 10 12 11 11 11 13 15 16 17 17 17 18 19 21 23 25 26 25 25
6 8 9 9 9 9 8 8 8 9 9 8 9 11 11 11 9 7 5 3 1 3 5 7 9 8 8 9 11 13 14 14 14 15 17 20 21 23 25 27 27 26 25
7 9 9 9 9 9 9 9 9 10 10 11 13 15 13 12 9 7 4 1 2 3 5 5 5 6 7 9 10 11 11 13 14 17 19 21 23 25 27 27 27 27 27
11 11 11 11 12 12 12 11 10 11 12 14 14 16 13 10 8 5 3 2 1 2 3 4 5 6 7 9 10 11 12 14 17 19 20 22 24 26 28 29 30 29 30
14 13 13 13 13 13 12 11 11 13 14 18 15 14 9 6 6 5 3 2 1 2 3 4 5 6 7 9 11 13 14 16 19 21 22 24 26 28 29 31 32 32 30
15 14 15 15 14 13 12 11 12 14 16 20 19 10 6 5 10 4 4 3 3 3 4 5 6 7 9 10 12 15 17 18 20 22 24 25 27 29 31 32 33 32 31
18 16 15 16 15 13 12 12 12 13 14 19 21 18 7 6 8 6 6 5 5 4 5 6 7 9 10 12 14 16 18 20 22 24 24 25 27 29 31 33 35 34 33
19 17 15 15 14 12 12 12 13 14 16 18 20 19 11 9 9 7 8 9 8 5 5 6 8 10 12 13 15 17 20 21 23 24 23 25 28 30 32 35 37 37 36
19 17 16 15 14 12 11 11 12 15 17 20 17 20 15 12 13 13 8 13 8 5 3 6 8 10 13 15 17 18 20 22 23 22 23 26 28 30 33 35 38 39 36
20 17 15 14 13 12 10 11 12 14 18 20 19 19 19 16 14 14 11 16 10 6 2 2 10 13 15 16 18 19 20 22 22 22 24 27 29 31 34 36 38 39 39
18 16 15 14 12 11 10 11 12 13 14 15 14 13 11 9 8 9 11 12 11 6 5 5 8 12 15 17 18 20 22 22 22 22 24 26 29 32 34 36 37 37 37
19 16 15 14 12 12 11 11 12 13 13 13 12 11 9 8 8 10 11 9 7 6 5 5 6 12 14 17 19 22 23 22 22 22 25 27 29 32 35 36 35 35 37
19 16 15 14 13 12 12 13 13 14 14 14 13 12 11 10 10 11 11 9 8 8 6 6 8 11 14 17 19 21 23 23 23 23 26 28 31 33 34 34 34 35 36
20 18 16 15 14 14 14 15 15 15 15 15 14 13 12 12 11 11 10 10 9 10 10 8 9 11 15 18 20 23 25 25 26 25 28 29 32 33 34 32 33 34 35
21 18 17 16 16 16 16 16 16 16 15 15 14 13 11 12 11 10 10 9 9 9 9 9 10 13 16 20 22 24 26 27 28 28 29 29 32 34 32 30 32 32 33
22 20 19 18 18 18 18 19 17 17 17 15 14 13 11 11 10 9 8 8 8 8 9 10 11 14 18 22 24 27 29 29 30 29 31 32 33 35 32 31 30 31 32
24 21 19 19 19 19 20 21 20 20 19 17 16 14 12 12 10 9 8 7 7 7 8 10 12 16 20 23 27 30 31 32 32 31 32 34 37 36 32 30 31 33 34
24 22 21 21 21 21 22 22 21 20 19 18 16 15 13 12 10 9 8 7 6 6 7 10 13 17 20 23 28 30 31 34 34 33 37 35 39 40 35 36 35 34 35
27 24 22 22 23 24 22 21 21 21 19 17 16 16 14 13 11 9 8 6 5 5 7 9 13 16 19 22 25 28 31 34 31 28 39 38 39 42 37 37 38 40 39
29 27 25 25 25 24 24 23 22 21 19 18 16 15 14 13 11 10 8 6 4 4 6 9 12 15 17 21 24 26 28 30 32 31 39 40 39 41 41 40 41 42 42
31 29 28 27 28 25 26 26 24 22 21 19 18 16 15 14 13 11 9 6 3 3 5 8 11 13 17 20 23 25 29 31 32 31 38 39 40 45 40 41 44 45 46
33 29 28 28 29 28 29 28 28 26 24 22 21 19 16 15 13 12 9 6 3 2 4 6 9 12 15 18 21 24 28 32 35 32 35 39 42 52 44 44 47 48 49
32 32 30 30 30 29 29 30 30 28 27 25 23 20 18 16 14 12 10 7 3 0 2 5 8 10 14 16 19 23 27 30 32 29 31 40 41 41 36 42 46 48 52

GFSMA_850_spd_300.txt.gz
Wind_Speed
9 8 8 9 8 7 7 6 6 5 6 4 3 3 3 1 5 2 2 6 12 8 4 7 9 12 14 17 17 15 13 12 13 14 14 14 14 14 14 14 16 17 19
9 8 8 8 7 7 8 7 6 6 5 5 6 6 4 2 5 5 9 11 10 7 3 3 7 12 17 18 16 14 14 13 13 13 13 13 14 16 17 18 19 20 21
11 9 9 8 8 8 7 5 7 8 8 8 7 6 5 4 6 7 9 8 8 5 7 7 10 14 15 14 13 13 12 12 13 14 15 16 17 17 18 20 21 22 23
11 10 9 9 10 8 7 7 7 6 6 6 6 5 6 7 7 8 7 6 4 0 5 9 11 12 11 11 11 11 12 13 13 14 15 16 17 19 20 22 24 24 25
10 12 11 11 9 9 10 9 8 7 7 7 7 9 9 8 7 7 6 4 3 2 5 7 8 7 8 9 10 12 13 13 14 14 15 17 18 20 22 24 25 26 26
10 11 13 11 10 10 10 9 9 8 8 9 9 10 9 8 8 6 5 3 4 4 3 3 4 5 6 8 11 11 12 12 13 15 16 18 20 22 24 26 26 26 26
11 11 11 10 10 10 10 10 10 10 10 11 11 10 8 8 7 6 4 2 1 2 2 2 2 4 6 7 9 11 12 13 14 17 18 19 21 24 25 27 28 28 28
12 11 11 11 10 11 10 10 10 10 11 13 6 7 6 3 4 5 3 2 2 1 2 2 3 4 5 6 9 11 13 14 16 18 19 20 22 24 26 27 29 30 30
13 13 12 12 12 12 12 12 12 12 10 13 13 5 5 4 8 3 4 3 2 2 2 2 3 4 5 7 10 13 14 16 17 18 19 21 23 24 26 28 30 31 30
17 15 14 13 13 13 13 12 13 13 11 12 14 17 10 6 6 5 4 5 4 2 2 2 3 5 6 8 11 14 16 16 18 19 20 22 23 25 27 29 31 33 33
19 17 15 14 13 13 13 13 13 14 14 12 12 11 8 4 6 4 6 7 6 4 1 2 3 5 8 9 11 14 15 17 19 19 20 22 24 26 28 30 32 34 34
20 18 17 15 13 13 13 13 14 14 14 14 13 12 10 8 6 5 5 10 8 7 3 1 4 5 7 9 11 14 15 16 17 19 21 23 25 27 29 31 33 35 35
20 18 18 15 14 13 13 13 14 15 16 16 17 14 17 17 14 9 8 11 8 6 4 3 3 5 7 10 12 14 15 15 17 19 21 24 25 27 30 32 33 34 36
19 19 18 16 14 13 13 13 14 15 17 18 19 19 17 16 13 11 11 13 12 6 5 4 2 5 7 10 12 14 15 15 17 19 22 24 26 28 30 32 33 34 36
20 20 17 16 15 13 13 13 14 15 16 16 16 15 13 12 12 13 13 12 8 9 7 2 2 5 7 10 13 14 15 14 16 19 22 24 26 28 31 32 33 34 35
19 22 19 17 15 13 13 14 15 15 15 16 16 15 14 12 12 13 13 12 12 8 7 6 2 2 7 9 12 14 15 16 17 20 22 24 26 29 30 31 33 34 35
22 23 19 18 16 14 15 16 16 16 16 16 16 16 14 13 13 13 13 11 10 8 10 7 4 4 7 10 12 15 17 18 17 21 23 23 26 28 29 31 33 33 35
25 22 20 18 16 15 16 17 17 19 18 17 17 16 15 15 14 14 13 13 12 11 9 8 4 3 7 11 13 17 18 19 19 20 23 25 25 28 28 31 31 32 35
26 23 21 18 17 17 17 18 19 19 19 18 17 17 16 15 15 15 14 13 12 10 9 7 4 5 7 12 15 17 19 21 19 22 26 25 26 29 28 31 31 34 35
28 24 21 20 19 18 19 20 20 20 20 19 19 18 16 15 14 14 13 12 11 9 8 6 5 4 8 13 16 20 20 22 24 24 27 26 29 29 28 30 32 35 37
26 23 24 23 21 21 22 23 23 22 21 21 20 19 18 17 16 15 13 13 11 9 7 6 4 4 8 12 17 19 21 24 23 26 32 29 24 26 26 26 26 34 37
29 30 30 27 24 24 24 23 23 23 22 21 20 20 17 17 15 13 11 11 10 9 8 6 4 5 9 12 15 18 18 20 20 20 28 26 20 25 25 26 31 35 37
32 31 26 26 24 23 23 24 24 24 24 23 21 20 20 18 16 15 13 10 9 7 5 5 4 5 8 12 15 17 18 18 18 21 23 26 24 25 30 27 31 35 39
32 31 28 26 24 25 23 25 24 21 22 22 21 20 19 19 18 16 14 11 9 7 5 3 3 4 7 10 14 16 19 20 19 19 20 28 36 32 37 24 37 35 39
33 31 28 27 25 26 24 27 27 24 22 23 21 20 20 19 18 17 16 13 10 7 5 3 1 3 5 8 12 16 15 18 22 25 15 34 36 42 39 24 31 40 43
30 30 30 26 25 27 27 28 30 25 25 25 25 23 22 22 20 19 17 14 11 8 6 4 2 1 4 7 10 14 16 18 18 18 18 34 31 31 23 23 45 38 39